Location: ???????????
(54.6970°N, 39.1477°E)
Time: 12:51:48
(UTC+00:00)

SL-14 R/B - Pass Details

Date: 19 May 2025
Orbit: 500 x 530 km, 82.4° (Epoch: 19 June)

Event Time Altitude Azimuth Distance (km) Brightness Sun altitude
Exits shadow 22:18:56 26° 192° (SSW) 1,046 4.1 -14.3°
Maximum altitude 22:21:01 87° 282° (WNW) 529 3.2 -14.2°
Drops below altitude 10° 22:24:56 10° 11° (NNE) 1,777 7.4 -14.0°
Sets 22:27:05 0° 12° (NNE) 2,676 8.8 -14.0°
